Regional Weather Roundup
Issued by NWS

Home | Current Version | Previous Version | Text Only | Print | Product List | Glossary Off
Versions: 1 2 3 4 5 6 7 8 9 10 11 12 13 14 15 16 17 18 19 20 21 22 23 24 25 26 27 28 29 30 31 32 33 34 35 36 37 38 39 40 41 42 43 44 45 46 47 48 49 50

000
ASUS43 KIND 271309
RWRIN

WEATHER ROUNDUP FOR INDIANA
NATIONAL WEATHER SERVICE INDIANAPOLIS IN
800 AM EST THU NOV 27 2014

NOTE: "FAIR" INDICATES FEW OR NO CLOUDS BELOW 12,000 FEET WITH NO
SIGNIFICANT WEATHER AND/OR OBSTRUCTIONS TO VISIBILITY.

* - STATION DOES NOT REPORT WEATHER SUCH AS PRECIPITATION OR FOG.

+ - STATION NOT QUALITY CONTROLLED BY THE NATIONAL WEATHER SERVICE.
    USE DATA WITH CAUTION...ESPECIALLY DEWPOINT AND RELATIVE
    HUMIDITY OBSERVATIONS.

INZ001>003-010>013-019-020-271400-
NORTHWEST INDIANA

CITY           SKY/WX    TMP DP  RH WIND       PRES   REMARKS
GARY /AIRPORT/ CLOUDY    28  21  74 W8        30.27R WCI  20
KNOX *+        CLOUDY    29  23  79 W13       30.22R WCI  18
LA PORTE +     FLURRIES  31  28  90 NW7       30.22R WCI  24
MICHIGAN CITY+ LGT SNOW  32  25  74 NW9       30.23S WCI  24
MONTICELLO +   CLOUDY    28  25  91 W12       30.25R FOG     WCI  17
RENSSELAER +   CLOUDY    27  27 100 W9        30.27R FOG     WCI  17
VALPARAISO     FLURRIES  27  22  81 W13       30.24R WCI  16

$$

LMZ046-743>745-271400-
SOUTHERN LAKE MICHIGAN

STATION/POSITION TIME  TEMP WIND        PRES
                       AIR  DIR/SP/G
                 (UTC) (F)  (DEG/KT/KT) (MB)
MICHIGAN CITY    1300   31  300/ 22/ 24   N/A

$$

INZ004-005-014>016-021>024-271400-
NORTH CENTRAL INDIANA

CITY           SKY/WX    TMP DP  RH WIND       PRES   REMARKS
GOSHEN         CLOUDY    28  23  81 W7        30.19R WCI  21
LOGANSPORT +   CLOUDY    28  27  93 W9        30.25R FOG     WCI  20
PERU/GRISSOM   LGT SNOW  28  28 100 W8        30.23R FOG     WCI  19
ROCHESTER +    LGT SNOW  32  30  93 W5        30.22S WCI  27
SOUTH BEND     LGT SNOW  28  26  92 W5        30.21R VSB 3/4 WCI  23
WARSAW +       CLOUDY    28  23  80 W5        30.21R WCI  23

$$

INZ006>009-017-018-025>027-271400-
NORTHEAST INDIANA

CITY           SKY/WX    TMP DP  RH WIND       PRES   REMARKS
ANGOLA *+      CLOUDY    27  21  80 W3        30.17R
AUBURN +       CLOUDY    28  23  80 W5        30.19S WCI  23
FORT WAYNE     MOCLDY    26  22  84 W8        30.21R WCI  18
HUNTINGTON +   CLOUDY    27  22  82 CALM      30.21R

$$

INZ028-029-035-036-043>045-051>053-271400-
WEST CENTRAL INDIANA

CITY           SKY/WX    TMP DP  RH WIND       PRES   REMARKS
GREENCASTLE +  MOCLDY    25  21  86 CALM      30.28R FOG
LAFAYETTE      CLOUDY    27  24  89 NW9       30.28R FOG     WCI  18
TERRE HAUTE    CLOUDY    25  20  81 NW8       30.32R HAZE    WCI  16

$$

INZ030>032-037>040-046>048-054>057-064-065-271400-
CENTRAL INDIANA

CITY           SKY/WX    TMP DP  RH WIND       PRES   REMARKS
CP ATTERBURY + CLOUDY    28  21  74 NW9       30.28R WCI  20
FRANKFORT +    CLOUDY    28  28 100 W9        30.26R FOG     WCI  19
INDIANAPOLIS   FLURRIES  25  20  81 NW6       30.25R WCI  18
-EAGLE CREEK   CLOUDY    26  21  81 NW5       30.25R WCI  20
KOKOMO *+      CLOUDY    28  21  74 W12       30.23R WCI  18
MARION +         N/A     27  22  82 NW7       30.22S HAZE    WCI  19
MT COMFORT *+  MOCLDY    27  18  69 NW7       30.25R WCI  19
SHELBYVILLE    CLOUDY    28  21  75 NW9       30.25R WCI  19
ZIONSVILLE +   CLOUDY    27  22  82 W5        30.25R WCI  21

$$

INZ033-034-041-042-049-050-058-059-271400-
EAST CENTRAL INDIANA

CITY           SKY/WX    TMP DP  RH WIND       PRES   REMARKS
MUNCIE         CLOUDY    27  22  81 NW14      30.22R WCI  16

$$

INZ060-061-067>069-081>083-085>088-271400-
SOUTHWEST INDIANA

CITY           SKY/WX    TMP DP  RH WIND       PRES   REMARKS
EVANSVILLE     CLOUDY    30  23  75 NW12G18   30.36R WCI  20
HUNTINGBURG *+ CLOUDY    28  23  80 NW9       30.32R WCI  20
WASHINGTON +   CLOUDY    28  25  91 NW9       30.33R WCI  19

$$

INZ062-063-066-070>080-084-089>092-271400-
SOUTH CENTRAL AND SOUTHEAST INDIANA

CITY           SKY/WX    TMP DP  RH WIND       PRES   REMARKS
BLOOMINGTON    PTCLDY    26  20  77 NW6       30.28R WCI  19
SEYMOUR +      CLOUDY    30  21  69 NW9       30.28  WCI  22

$$




USA.gov is the U.S. government's official web portal to all federal, state and local government web resources and services.